sat.trackr.live / text

‹ back to catalog

COSMOS 2618

NORAD 68829 · 2026-090D

PAYLOAD ACTIVE UNKNOWN

§ Identity

Operator
Country
CIS
Launch date
2026-04-23
Launch site
PLMSC
Launch vehicle
Mass (kg)
RCS (m²)

External: N2YO · Heavens-Above · Gunter

§ Orbital elements

Epoch: 2026-09-20T00:34:02.624736Z

Period
90.75 min
Inclination
96.6364°
Eccentricity
0.0013807
Mean motion
15.86787051 rev/d
Perigee alt
302.1 km
Apogee alt
320.5 km
Semi-major
6,689.4 km
B*
1.3251e-4
RAAN
178.0414°
Arg perigee
41.6812°
Mean anomaly
318.5510°
Rev number
2,369

§ Raw data

COSMOS 26181 68829U 26090D   26263.02364149  .00033299  22119-5  13251-3 0  99992 68829  96.6364 178.0414 0013807  41.6812 318.5510 15.86787051 23696

JSON: /api/v1/satellites/68829 · /tle

For live sub-satellite position, see the globe view (requires WebGL).

§ Visibility from observer

Set your observer location to see the next 7 days of passes ≥ 10°. The values pass through the URL so the page stays shareable.

No JS? Fill the form by hand. The geolocation button needs JavaScript.